Printer-friendly version
Follow the MPC on Twitter Follow the MPC on Facebook The MPC blog
Minor Planet Center

MPEC 2004-S65 : 2004 SC56

The following Minor Planet Electronic Circular may be linked-to from your own Web pages, but must not otherwise be redistributed electronically.

A form allowing access to any MPEC is at the bottom of this page.


Read MPEC 2004-S64 Read MPEC 2004-S66


M.P.E.C. 2004-S65                                Issued 2004 Sept. 26, 19:40 UT

     The Minor Planet Electronic Circulars contain information on unusual
         minor planets and routine data on comets.  They are published
   on behalf of Commission 20 of the International Astronomical Union by the
          Minor Planet Center, Smithsonian Astrophysical Observatory,
                          Cambridge, MA 02138, U.S.A.

                  Supported in part by the Brinson Foundation
             Prepared using the Tamkin Foundation Computer Network

                              MPC@CFA.HARVARD.EDU
          URL http://cfa-www.harvard.edu/iau/mpc.html  ISSN 1523-6714

                                   2004 SC56

Observations:
     K04S56C* C2004 09 25.28594 00 50 49.70 +34 51 39.9          18.1   ES065704
     K04S56C  C2004 09 25.29818 00 50 39.15 +34 51 29.1          18.1   ES065704
     K04S56C  C2004 09 25.31042 00 50 28.54 +34 51 17.9          18.1   ES065704
     K04S56C  C2004 09 25.32267 00 50 17.99 +34 51 06.5          17.9   ES065704
     K04S56C  C2004 09 25.96534 00 41 19.15 +34 38 35.1          17.5 R ES065176
     K04S56C  C2004 09 25.96591 00 41 18.61 +34 38 34.4          17.7 R ES065176
     K04S56C  C2004 09 25.96649 00 41 18.07 +34 38 33.7          17.7 R ES065176
     K04S56C  C2004 09 25.96706 00 41 17.53 +34 38 33.1          17.4 R ES065176
     K04S56C  C2004 09 25.96765 00 41 16.97 +34 38 32.4          17.5 R ES065176
     K04S56C  C2004 09 26.20730 00 37 44.21 +34 32 48.5          18.6 R ES065734
     K04S56C  C2004 09 26.20807 00 37 43.45 +34 32 47.3          17.9 R ES065734
     K04S56C  C2004 09 26.20884 00 37 42.74 +34 32 46.3          17.8 R ES065734
     K04S56C  C2004 09 26.21038 00 37 41.24 +34 32 44.3          18.0 R ES065734
     K04S56C  C2004 09 26.30158 00 36 13.93 +34 30 43.1          17.6   ES065704
     K04S56C  C2004 09 26.31411 00 36 01.52 +34 30 23.7          18.2   ES065704
     K04S56C  C2004 09 26.32204 00 35 54.40 +34 30 14.5          18.2 R ES065854
     K04S56C  C2004 09 26.32396 00 35 52.51 +34 30 11.7          18.2 R ES065854
     K04S56C  C2004 09 26.32492 00 35 51.61 +34 30 09.9          18.4 R ES065854
     K04S56C  C2004 09 26.32588 00 35 50.55 +34 30 08.5          18.3 R ES065854
     K04S56C  C2004 09 26.32663 00 35 49.18 +34 30 02.7          17.9   ES065704

Observer details:
176 Observatori Astronomic de Consell.  Observers A. Lopez, R. Pacheco,
    J. Forteza.  0.41-m f/4 reflector + CCD.
704 Lincoln Laboratory ETS, New Mexico.  Observers M. Blythe, F. Shelly,
    M. Bezpalko, R. Huber, L. Manguso, D. Torres, R. Kracke, M. McCleary,
    H. Stange, A. Milner.  Measurers J. Stuart, R. Sayer, J. Evans, J. Kommers.
    1.0-m f/2.15 reflector + CCD.
734 Farpoint Observatory.  Observer G. Hug.  0.4-m f/6 Schmidt-Cassegrain
    + CCD.
854 Sabino Canyon Observatory, Tucson.  Observer J. E. McGaha.  0.36-m f/10.0
    Schmidt-Cassegrain + CCD.

Orbital elements:
2004 SC56
Epoch 2004 July 14.0 TT = JDT 2453200.5                 MPC
M 113.57662              (2000.0)            P               Q
n   1.46233230     Peri.  322.28449     -0.96484284     -0.26098173
a   0.7687268      Node   202.64622     +0.25649218     -0.90915480
e   0.4232873      Incl.    4.63194     +0.05735895     -0.32453980
P   0.67           H   22.9           G   0.15           U   9
Residuals in seconds of arc
040925 704  0.2+  0.0     040925 176  0.4+  0.3-    040926 704  0.3+  0.3+
040925 704  0.3+  0.2-    040925 176  0.3+  0.3-    040926 854  0.1+  0.5-
040925 704  0.1+  0.4-    040926 734  0.5+  0.0     040926 854  0.3+  0.2-
040925 704  0.9+  0.2-    040926 734  0.3+  0.2-    040926 854  1.0+  0.4-
040925 176  0.5+  0.4-    040926 734  0.7+  0.2-    040926 854  0.3-  0.3-
040925 176  0.4+  0.4-    040926 734  0.6+  0.1-    040926 704  1.1+  0.3-
040925 176  0.4+  0.4-    040926 704  0.4+  0.2-

Ephemeris:
2004 SC56                a,e,i = 0.77, 0.42, 5                   q = 0.4433
Date    TT    R. A. (2000) Decl.     Delta      r     Elong.  Phase     V
2004 09 22    01 26.12   +35 08.2    0.076    1.062   139.0    38.3    19.0
2004 09 24    01 06.54   +35 05.3    0.067    1.057   142.5    35.3    18.6
2004 09 26    00 40.78   +34 38.1    0.058    1.051   145.9    32.3    18.2
2004 09 28    00 06.85   +33 24.8    0.050    1.045   148.5    30.1    17.8
2004 09 30    23 22.92   +30 47.6    0.043    1.038   148.3    30.5    17.5
2004 10 02    22 28.98   +25 55.2    0.038    1.031   142.8    36.0    17.3
2004 10 04    21 29.04   +18 18.5    0.035    1.024   131.2    47.3    17.5
2004 10 06    20 30.67   +08 54.1    0.035    1.016   116.1    62.1    17.9
2004 10 08    19 40.29   -00 11.3    0.038    1.007   101.2    76.7    18.5
2004 10 10    18 59.98   -07 30.9    0.043    0.998    88.5    89.0    19.2
2004 10 12    18 28.68   -12 54.9    0.050    0.989    78.4    98.8    20.0
2004 10 14    18 04.34   -16 47.9    0.058    0.979    70.3   106.5    20.6
2004 10 16    17 45.10   -19 36.9    0.066    0.969    63.6   112.8    21.3
2004 10 18    17 29.52   -21 41.7    0.075    0.959    58.0   118.1    21.9
2004 10 20    17 16.58   -23 15.7    0.084    0.948    53.2   122.8    22.5
2004 10 22    17 05.55   -24 27.7    0.094    0.936    48.8   126.9    23.0

Kyle E. Smalley              (C) Copyright 2004 MPC           M.P.E.C. 2004-S65

Read MPEC 2004-S64 Read MPEC 2004-S66


MPEC number:

Enter an MPEC number in one of the following forms:

  • 1997-B01 (the full form)
  • J97B01 (the packed version of the full form)
  • B01 (the abbreviated form)

Valid HTML 4.01!